Flag for Germany Weather past 2 weeks in Bonn, North Rhine-Westphalia, Germany

Now
56 °F

Clear.


Feels Like: 56 °F
Forecast: 62 / 88 °F
Wind: 1 mph from Northwest

Location: Bonn-Hangelar

Current Time: Aug 2, 2015 at 5:06:25 AM

Latest Report: Aug 2, 2015 at 4:00 AM


Visibility: 9 mi

Pressure: 30.10 "Hg

Humidity: 76%

Dew point: 48 °F

Location of BonnLocation

Historic Weather in Bonn — Graph

°F

Bonn temperature yesterday

Maximum temperature yesterday: 73 °F (at 5:00 PM)
Minimum temperature yesterday: 49 °F (at 7:00 AM)
Average temperature yesterday: 62 °F

Past Weeks' High & Low Weather Summary

 TemperatureHumidityPressure
High77 °F (Jul 21, 6:00 PM)100% (Jul 19, 7:00 AM)30.16 "Hg (Jul 19, 7:00 AM)
Low46 °F (Jul 31, 5:00 AM)38% (Jul 18, 4:00 PM)29.50 "Hg (Jul 25, 7:00 AM)
Average62 °F78%29.90 "Hg
* Reported Jul 18 4:00 AM — Aug 2 4:00 AM, Bonn, Weather by CustomWeather, © 2015

Note: Actual official high and low records may vary slightly from our data, if they occured in-between our weather recording intervals... More about our weather records

Advertising

Bonn weather history for previous 24 hours

 ConditionsComfort  
Time TempWeatherWind HumidityBarometerVisibility
4:00 AM
Sun, Aug 2
56 °FClear.1 mph76%30.10 "Hg9 mi
1:00 AM59 °FPassing clouds.1 mph74%30.09 "Hg13 mi
11:00 PM
Sat, Aug 1
62 °FOvercast.3 mph65%30.06 "Hg16 mi
10:00 PM64 °FOvercast.3 mph58%30.04 "Hg18 mi
8:00 PM71 °FOvercast.3 mph44%30.00 "Hg28 mi
7:00 PM70 °FScattered clouds.3 mph44%29.98 "Hg34 mi
6:00 PM73 °FOvercast.3 mph42%29.97 "Hg25 mi
5:00 PM73 °FOvercast.2 mph41%29.97 "Hg25 mi
4:00 PM72 °FPartly sunny.3 mph43%29.97 "Hg31 mi
3:00 PM72 °FPassing clouds.3 mph46%29.96 "Hg14 mi
2:00 PM70 °FSunny.3 mph42%29.97 "Hg19 mi
1:00 PM70 °FScattered clouds.2 mph43%29.97 "Hg25 mi
12:00 PM69 °FSunny.2 mph50%29.97 "Hg25 mi
11:00 AM67 °FScattered clouds.2 mph53%29.97 "Hg25 mi
10:00 AM64 °FScattered clouds.2 mph58%29.98 "Hg25 mi
9:00 AM60 °FPassing clouds.2 mph66%29.98 "Hg22 mi
8:00 AM55 °FSunny.3 mph79%29.97 "Hg19 mi
7:00 AM49 °FPartly sunny.3 mph89%29.98 "Hg17 mi
5:00 AM50 °FOvercast.5 mph87%29.98 "Hg17 mi
Weather by CustomWeather, © 2015

See weather overviewHow to use our weather pages